Vorticity
nan nan nan nan nan nan nan nan nan nan nan nan nan nan nan nan nan nan nan nan nan nan nan nan nan nan nan nan nan nan nan nan nan nan nan nan nan nan nan nan nan nan nan nan nan nan nan nan nan
nan 10 6 6 11 9 2 5 10 7 5 2 8 9 -2 -1 11 10 -1 3 9 6 4 3 7 9 9 10 12 11 8 7 8 8 8 8 6 5 5 4 5 5 6 5 5 4 4 4 nan
nan 8 8 5 13 12 7 10 7 7 4 4 3 3 5 1 7 4 7 8 6 5 2 3 6 7 7 8 10 10 13 13 8 7 8 8 7 6 5 4 4 5 6 6 5 4 5 6 nan
nan 10 6 7 9 9 7 10 9 6 5 10 5 5 2 6 10 6 8 8 6 5 3 1 3 6 6 6 7 7 11 15 13 11 7 7 8 7 7 7 7 7 6 6 5 6 6 5 nan
nan 6 6 8 6 5 2 6 12 10 10 9 6 5 3 5 6 6 6 7 5 5 4 0 0 5 5 4 5 7 8 10 13 14 13 11 8 7 6 7 7 7 6 6 6 6 6 6 nan
nan 6 12 7 4 3 2 3 9 11 9 10 9 1 4 5 2 4 4 4 5 5 5 3 1 2 5 4 4 6 5 7 11 13 13 12 13 11 8 7 5 7 7 7 7 6 7 6 nan
nan 8 10 10 7 4 3 5 5 6 7 7 1 3 5 3 1 2 4 4 4 5 6 6 4 3 4 3 3 5 5 6 6 9 13 13 11 11 11 9 7 5 6 7 7 7 8 7 nan
nan 12 8 10 5 4 5 6 4 5 8 2 9 15 3 -0 4 4 2 3 3 4 5 5 6 6 6 4 2 5 6 6 6 6 6 13 20 13 7 9 9 7 7 7 7 7 7 8 nan
nan 10 9 10 9 2 3 5 5 5 4 5 13 11 9 9 9 6 4 2 4 3 4 6 6 6 7 8 4 5 6 8 7 6 7 11 12 14 14 10 10 9 7 7 8 8 7 8 nan
nan 10 7 8 10 3 3 7 8 8 6 4 4 6 6 7 9 6 6 4 4 5 6 6 6 7 9 8 6 9 8 8 6 5 7 8 7 9 10 14 12 10 10 9 9 8 6 3 nan
nan 12 9 7 4 6 8 8 9 12 5 5 10 5 4 5 5 6 5 5 5 6 5 5 7 6 8 9 10 8 7 6 5 5 6 9 10 9 10 12 9 13 10 6 9 8 8 4 nan
nan 7 6 5 3 3 4 6 6 10 12 9 10 7 6 5 4 5 5 5 6 6 6 6 7 8 9 9 8 6 7 7 6 4 7 10 8 7 8 6 8 10 11 11 7 6 10 10 nan
nan 4 5 5 5 8 9 9 5 9 7 7 5 5 5 5 5 5 6 5 5 5 6 7 7 8 8 9 8 8 8 6 6 7 8 6 7 8 8 7 8 7 9 12 10 8 7 9 nan
nan 5 9 11 13 15 13 15 6 7 6 4 4 4 4 4 5 6 5 5 6 6 6 7 8 7 8 8 8 9 8 7 8 8 6 6 8 8 7 8 8 7 7 8 11 9 9 9 nan
nan 11 11 10 9 14 12 7 10 10 5 3 4 3 3 4 5 6 6 6 7 7 6 8 8 7 8 8 10 10 8 7 8 7 7 7 7 7 9 10 9 9 8 9 9 10 11 9 nan
nan 11 7 6 7 7 6 9 15 7 4 2 3 4 4 4 5 6 6 8 7 8 7 8 8 7 8 10 10 9 7 9 9 8 8 7 8 7 9 9 9 8 9 9 10 12 9 10 nan
nan 5 10 2 9 4 2 5 15 6 5 4 3 4 6 5 5 5 7 8 8 8 7 8 8 8 9 12 11 8 9 10 8 8 8 6 8 9 10 9 8 9 10 9 7 8 10 9 nan
nan 11 6 5 4 1 5 11 10 7 6 5 5 4 5 5 5 7 7 8 8 8 8 9 8 7 12 13 10 10 9 8 8 9 5 7 10 9 9 9 9 10 10 9 8 6 9 10 nan
nan 7 4 8 7 10 9 14 14 9 6 6 5 5 5 7 6 6 7 7 8 7 7 7 8 9 12 10 8 9 8 8 9 7 8 10 7 9 11 9 9 9 10 8 8 10 9 9 nan
nan 6 8 8 12 8 8 9 15 7 7 8 8 7 5 6 5 6 7 7 7 7 8 7 8 9 11 9 9 8 8 9 9 8 8 10 9 9 9 8 10 9 10 10 12 12 7 10 nan
nan 11 10 7 7 10 14 18 10 8 8 7 6 5 5 5 6 6 6 7 7 7 8 8 7 8 8 10 11 9 10 9 8 8 9 8 10 11 11 10 9 9 9 10 12 11 8 11 nan
nan 10 11 9 7 11 8 21 18 11 5 6 6 4 4 6 6 5 6 6 8 8 8 8 8 9 8 9 9 10 11 9 10 9 8 8 10 11 12 12 11 11 10 9 6 10 13 8 nan
nan 6 9 10 8 10 11 7 10 12 12 13 8 5 5 5 6 6 7 7 8 8 9 8 8 8 8 9 11 11 10 12 9 7 8 11 12 11 12 13 12 13 11 10 10 7 6 10 nan
nan 14 11 9 12 7 13 9 4 12 14 16 11 6 5 6 7 7 7 7 7 8 8 8 8 8 8 9 9 9 10 12 11 10 13 10 11 12 10 11 12 11 13 12 11 11 9 6 nan
nan 13 13 13 9 5 3 10 13 10 14 16 11 6 5 6 6 6 6 7 7 7 9 8 8 8 8 9 9 10 11 12 12 13 11 10 13 9 8 12 13 11 10 13 11 12 13 10 nan
nan 10 13 7 2 3 8 14 13 11 11 11 8 7 6 5 6 7 7 7 7 7 8 8 9 9 9 8 9 10 13 14 10 11 12 12 10 8 9 14 13 12 21 21 7 12 14 10 nan
nan 6 7 13 11 11 11 10 5 6 6 6 6 5 4 6 6 5 7 9 8 8 7 8 9 9 8 10 10 9 9 11 11 10 14 11 9 11 11 13 15 16 19 21 21 13 10 13 nan
nan 8 13 9 7 10 7 13 15 9 10 8 6 7 8 7 5 5 7 8 10 10 7 7 9 9 8 10 10 8 8 10 11 11 9 12 13 10 13 13 14 14 15 16 23 22 19 19 nan
nan 7 7 7 9 9 11 11 16 12 15 13 10 10 9 7 6 6 7 7 9 10 9 6 7 8 8 9 9 10 9 9 11 10 8 10 13 11 11 12 13 13 14 15 16 17 17 20 nan
nan nan nan nan nan nan nan nan nan nan nan nan nan nan nan nan nan nan nan nan nan nan nan nan nan nan nan nan nan nan nan nan nan nan nan nan nan nan nan nan nan nan nan nan nan nan nan nan nan
CAPE
0 0 0 0 0 0 0 0 0 0 0 0 0 10 239 425 907 1048 1032 2028 2231 2224 1887 1802 1172 1739 2126 2223 2043 2146 1995 1952 2071 2585 2683 2638 2615 2572 2658 2782 2807 2949 3186 3191 2668 2406 2059 1666 1587
0 0 0 0 0 0 0 0 0 0 0 0 0 0 0 0 46 0 820 48 1345 324 73 6 71 715 1395 1711 2178 2255 2321 2123 1970 2186 2645 2734 2706 2520 2540 2750 2736 3007 3149 3212 2786 2508 2266 2089 1451
0 0 0 0 0 0 0 0 0 0 0 0 0 0 0 0 0 7 0 0 113 7 0 0 0 0 12 141 709 1316 1996 2247 2133 2095 2334 2487 2478 2576 2407 2147 2508 2805 3194 3168 2895 2623 2674 1987 1252
0 0 0 0 0 0 0 0 0 0 0 0 0 0 0 0 0 0 0 0 0 0 0 0 0 0 0 0 0 19 868 1530 2075 2280 2047 2143 2440 2514 2643 2341 2228 2504 2738 3184 2983 2662 2557 1652 1192
0 0 0 0 0 0 0 0 0 0 0 0 0 0 0 0 0 0 0 0 0 0 0 0 0 0 0 0 0 0 0 288 1314 1906 2176 2033 2103 2289 2354 2261 2085 2030 2523 2798 2775 2571 2272 1416 1141
0 0 0 0 0 0 0 0 0 0 0 0 0 0 0 0 0 0 0 0 0 0 0 0 0 0 0 0 0 0 0 0 11 1144 1674 1899 1915 1766 1747 2027 2101 2027 2117 2328 2406 2346 2076 1329 1177
0 0 0 0 0 0 0 0 0 0 0 0 0 0 0 0 0 0 0 0 0 0 0 0 0 0 0 0 0 0 0 0 0 1 583 1138 1295 1284 1672 1750 1841 2052 1969 1974 2116 2098 1880 1281 1140
0 0 0 0 0 0 0 0 0 0 0 0 0 0 0 0 0 0 0 0 0 0 0 0 0 0 0 0 0 0 0 0 0 0 0 0 546 1037 1220 1442 1405 1464 1849 1827 1859 1843 1747 1286 1039
0 0 0 0 0 0 0 0 0 0 0 0 0 0 0 0 0 0 0 0 0 0 0 0 0 0 0 0 0 0 0 0 0 0 0 0 172 1856 1701 1444 1315 1166 1347 1510 1670 1605 1495 1249 963
0 0 0 0 0 0 0 0 0 0 0 0 0 0 0 0 0 0 0 0 0 0 0 0 0 0 0 0 0 0 0 0 0 0 0 0 0 0 1031 1190 951 1016 968 1148 1121 1340 1267 944 1654
0 0 0 0 0 0 0 0 0 0 0 0 0 0 0 0 0 0 0 0 0 0 0 0 0 0 0 0 0 0 0 0 0 0 0 0 0 0 0 1755 2407 2020 1141 1897 1344 1380 1814 1471 1640
0 0 0 0 0 0 0 0 0 0 0 0 0 0 0 0 0 0 0 0 0 0 0 0 0 0 0 0 0 0 0 0 0 0 0 0 0 0 0 0 968 2099 2604 2021 1649 1807 1826 1653 1717
0 0 0 0 0 0 0 0 0 0 0 0 0 0 0 0 0 0 0 0 0 0 0 0 0 0 0 0 0 0 0 0 0 0 0 0 0 0 0 0 0 1021 2301 2250 2188 2031 2083 2027 1913
0 0 0 0 0 0 0 0 0 0 0 0 0 0 0 0 0 0 0 0 0 0 0 0 0 0 0 0 0 0 0 0 0 0 0 0 0 0 0 0 0 0 806 1664 2297 2052 2112 2314 2037
0 0 0 0 0 0 0 0 0 0 0 0 0 0 0 0 0 0 0 0 0 0 0 0 0 0 0 0 0 0 0 0 0 0 0 0 0 0 0 0 0 0 0 740 1722 2021 1766 2221 2036
0 0 0 0 0 0 0 0 0 0 0 0 0 0 0 0 0 0 0 0 0 0 0 0 0 0 0 0 0 0 0 0 0 0 0 0 1 3 0 0 0 0 0 4 805 1426 1705 1427 1473
0 0 0 0 0 0 0 0 0 0 0 0 0 0 0 0 0 0 0 0 0 0 0 0 0 0 1 1 0 0 0 0 0 0 0 1 3 5 5 1 0 0 0 0 13 421 1332 1202 1213
0 0 0 0 0 0 0 0 0 0 0 0 0 0 0 0 0 0 0 0 0 0 0 0 0 0 0 0 0 0 0 0 0 0 0 3 7 12 14 7 7 9 1 0 0 25 616 1201 1073
0 0 0 0 0 0 0 0 0 0 0 0 0 0 0 0 0 0 0 0 0 0 0 0 0 0 0 0 0 0 0 0 1 3 9 12 12 14 16 9 13 18 13 4 0 0 56 986 1589
0 0 0 0 0 0 0 0 0 0 0 0 0 0 0 0 0 0 0 0 0 0 0 0 0 0 0 0 0 2 4 4 6 7 10 10 11 20 19 19 11 14 19 17 26 12 58 859 1915
0 0 0 0 0 0 0 0 0 0 0 0 0 0 0 0 0 0 0 0 0 0 0 0 0 0 0 5 0 2 3 5 5 5 6 8 9 6 20 19 40 22 17 17 20 25 38 212 1112
0 0 0 0 0 0 0 0 0 0 0 0 0 0 0 0 0 0 0 0 0 0 0 0 0 0 1 6 4 9 8 11 9 18 12 13 12 13 29 24 27 40 33 26 30 9 51 83 219
0 0 0 0 0 0 0 0 0 0 0 0 0 0 0 0 0 0 0 0 0 0 0 0 0 0 4 7 8 9 9 11 12 21 18 15 13 14 12 28 25 23 49 29 28 32 26 91 422
0 0 0 0 0 0 0 0 0 0 0 0 0 0 0 0 0 0 0 0 0 0 0 0 0 0 3 5 7 13 10 16 22 22 24 15 15 12 12 13 19 13 24 49 24 41 40 57 185
0 0 0 0 17 2 0 0 0 0 0 0 0 0 0 0 0 0 0 0 0 0 0 0 0 0 2 7 8 11 12 13 19 29 29 26 20 18 15 18 17 15 15 25 39 64 43 50 29
0 0 0 0 4 4 0 0 15 0 0 0 0 0 0 0 0 0 1 0 0 0 0 1 0 0 2 4 11 8 10 20 20 25 37 26 23 22 17 18 15 13 16 11 29 56 39 99 228
0 0 3 4 3 5 1 4 4 0 0 0 0 0 0 0 0 0 1 0 0 2 16 1 0 0 2 4 10 9 11 14 21 21 20 40 30 25 23 18 13 20 7 3 64 58 50 83 248
0 0 0 29 16 6 0 26 61 2 0 0 4 2 0 0 0 0 4 0 0 16 16 1 0 0 0 1 7 11 11 14 13 15 17 26 22 23 20 15 12 13 11 3 3 23 41 21 423
0 0 3 17 25 51 40 18 52 25 2 1 1 5 2 1 2 0 3 1 0 3 13 17 3 1 4 3 4 12 11 13 18 9 22 26 23 23 16 15 14 8 9 9 6 6 5 5 5
0 0 15 40 29 76 59 41 0 0 0 0 12 6 7 0 3 1 1 0 2 0 3 15 7 10 11 5 7 7 12 11 18 16 19 20 22 23 19 13 16 8 4 8 6 6 8 6 6